Regional Weather Roundup
Issued by NWS Cleveland, OH

Home | Current Version | Previous Version | Graphics & Text | Print | Product List | Glossary On
Versions: 1 2 3 4 5 6 7 8 9 10 11 12 13 14 15 16 17 18 19 20 21 22 23 24 25 26 27 28 29 30 31 32 33 34 35 36 37 38 39 40 41 42 43 44 45 46 47 48 49 50
814
ASUS41 KCLE 230202
RWRCLE
OHIO REGIONAL WEATHER ROUNDUP
NATIONAL WEATHER SERVICE CLEVELAND, OH
900 PM EST WED FEB 22 2017

NOTE: "FAIR" INDICATES FEW OR NO CLOUDS BELOW 12,000 FEET WITH NO
SIGNIFICANT WEATHER AND/OR OBSTRUCTIONS TO VISIBILITY.

OHZ001>008-015>018-024>027-034-035-043-044-230300-
   NORTHWEST OHIO

CITY           SKY/WX    TMP DP  RH WIND       PRES   REMARKS
DEFIANCE       PTCLDY    57  51  80 S8        29.75S
FINDLAY        CLOUDY    59  53  80 S12       29.77F
TOLEDO EXPRESS CLOUDY    58  56  93 S7        29.75S
TOLEDO EXEC    CLOUDY    59  55  87 S12       29.77S
LIMA           CLOUDY    58  55  90 S7        29.78F
$$

OHZ009>014-019>023-028>033-038-089-230300-
   NORTHEAST OHIO

CITY           SKY/WX    TMP DP  RH WIND       PRES   REMARKS
CLE-HOPKINS    MOCLDY    59  52  77 S10       29.83S
CLE-LAKEFRONT  CLOUDY    60  52  74 S12G22    29.79F
CUY CO. ARPT   CLOUDY    59  54  82 S14       29.81F
LORAIN-ELYRIA  CLOUDY    58  51  78 SW10      29.81S
ASHTABULA      CLOUDY    57  53  86 SW8       29.82F
AKRON-CANTON   CLOUDY    57  51  80 S8        29.84S
WOOSTER        CLOUDY    55  51  86 S8        29.84S
MANSFIELD      CLOUDY    55  54  96 S12       29.83S
YOUNGSTOWN     CLOUDY    57  52  83 SW7       29.85R
$$

OHZ042-051>053-060>062-070>072-077>081-230300-
  SOUTHWEST OHIO

CITY           SKY/WX    TMP DP  RH WIND       PRES   REMARKS
CINC-COVINGTON CLOUDY    63  56  78 S7        29.82S
CINC-LUNKEN    CLOUDY    56  56 100 CALM      29.83S
HAMILTON       PTCLDY    58  56  93 E5        29.82F
DAYTON         MOCLDY    58  55  90 S9        29.81F
WRIGHT-PAT AFB NOT AVBL
DAYTON GENERAL CLOUDY    59  56  89 SE7       29.81F
WILMINGTON     CLOUDY    57  55  93 SE7       29.84R
$$

OHZ036-037-039>041-045>050-054>059-063>069-073>076-082>088-230300-
  CENTRAL AND SOUTHEAST OHIO

CITY           SKY/WX    TMP DP  RH WIND       PRES   REMARKS
COLUMBUS       CLOUDY    59  54  83 SE7       29.84S
OSU AIRPORT    CLOUDY    57  56  96 S9        29.83S
BOLTON FIELD   CLOUDY    56  55  96 S8        29.84F
RICKENBACK AFB CLOUDY    56  55  94 SE5       29.84S
NEWARK         CLOUDY    57  53  86 SW6       29.85S
MARION         CLOUDY    56  54  93 S12       29.83S FOG
LANCASTER      CLOUDY    58  54  86 S3        29.86S
ZANESVILLE     CLOUDY    56  52  86 S6        29.87R
NEW PHILLY     NOT AVBL
$$




USA.gov is the U.S. government's official web portal to all federal, state and local government web resources and services.